| time (UTC) | temp F | wind direction | speed knots | gust knots | rain 1hr in | rain 24hr in | rain mn in | humidity % | barometer mb |
| 20260506225747 | 63 | 302 | 1.7 | 3.5 | 0.00 | 0.02 | 0.00 | 71 | 1012.3 |
| 20260506224747 | 63 | 310 | 1.7 | 3.5 | 0.00 | 0.02 | 0.00 | 70 | 1012.3 |
| 20260506223747 | 63 | 314 | 2.6 | 3.5 | 0.00 | 0.02 | 0.00 | 70 | 1012.5 |
| 20260506222748 | 63 | 337 | 2.6 | 4.3 | 0.00 | 0.02 | 0.00 | 71 | 1012.5 |
| 20260506221750 | 63 | 0 | 1.7 | 4.3 | 0.00 | 0.02 | 0.00 | 71 | 1012.5 |
| 20260506220748 | 63 | 298 | 1.7 | 3.5 | 0.00 | 0.02 | 0.00 | 71 | 1012.4 |
| 20260506215747 | 63 | 288 | 0.0 | 4.3 | 0.00 | 0.02 | 0.02 | 70 | 1012.5 |
| 20260506214745 | 63 | 274 | 0.9 | 3.5 | 0.00 | 0.02 | 0.02 | 69 | 1012.5 |
| 20260506213749 | 63 | 329 | 1.7 | 7.8 | 0.00 | 0.02 | 0.02 | 69 | 1012.4 |
| 20260506212745 | 63 | 78 | 3.5 | 5.2 | 0.00 | 0.02 | 0.02 | 71 | 1012.4 |
| 20260506211744 | 63 | 18 | 0.0 | 4.3 | 0.00 | 0.02 | 0.02 | 71 | 1012.5 |
| 20260506210828 | 62 | 63 | 2.6 | 3.5 | 0.00 | 0.02 | 0.02 | 71 | 1012.5 |
| 20260506210757 | 63 | 21 | 0.9 | 2.6 | 0.00 | 0.02 | 0.02 | 71 | 1012.5 |
| 20260506205427 | 63 | 285 | 2.6 | 4.3 | 0.00 | 0.02 | 0.02 | 75 | 1012.5 |
| 20260506205327 | 63 | 254 | 0.0 | 3.5 | 0.00 | 0.02 | 0.02 | 76 | 1012.5 |
| 20260506205307 | 63 | 224 | 0.0 | 2.6 | 0.00 | 0.02 | 0.02 | 76 | 1012.6 |
| 20260506204829 | 63 | 300 | 0.0 | 1.7 | 0.00 | 0.02 | 0.02 | 71 | 1012.4 |
| 20260506204003 | 63 | 193 | 0.0 | 3.5 | 0.00 | 0.02 | 0.02 | 72 | 1012.6 |
| 20260506195746 | 63 | 157 | 1.7 | 3.5 | 0.00 | 0.02 | 0.02 | 77 | 1012.6 |
| 20260506194744 | 63 | 319 | 2.6 | 3.5 | 0.00 | 0.02 | 0.02 | 78 | 1012.4 |
| 20260506193744 | 63 | 41 | 0.9 | 2.6 | 0.00 | 0.02 | 0.02 | 80 | 1012.4 |
| 20260506192945 | 63 | 241 | 0.0 | 1.7 | 0.00 | 0.02 | 0.02 | 80 | 1012.1 |
| 20260506192804 | 63 | 261 | 0.0 | 2.6 | 0.00 | 0.02 | 0.02 | 80 | 1012.2 |
| 20260506191058 | 64 | 266 | 1.7 | 2.6 | 0.00 | 0.02 | 0.02 | 80 | 1011.8 |
| 20260506190822 | 63 | 248 | 0.0 | 2.6 | 0.00 | 0.02 | 0.02 | 79 | 1012.0 |
| 20260506184747 | 64 | 228 | 1.7 | 1.7 | 0.00 | 0.02 | 0.02 | 80 | 1011.9 |
| 20260506183743 | 65 | 80 | 0.0 | 0.0 | 0.00 | 0.02 | 0.02 | 78 | 1011.7 |
| 20260506182741 | 65 | 80 | 0.0 | 0.0 | 0.00 | 0.02 | 0.02 | 78 | 1011.7 |
| 20260506181744 | 65 | 80 | 0.9 | 3.5 | 0.00 | 0.02 | 0.02 | 79 | 1011.7 |
| 20260506180739 | 65 | 32 | 0.0 | 2.6 | 0.00 | 0.02 | 0.02 | 77 | 1011.7 |
| 20260506175740 | 65 | 75 | 1.7 | 2.6 | 0.00 | 0.02 | 0.02 | 77 | 1011.5 |
| 20260506174738 | 65 | 75 | 2.6 | 3.5 | 0.00 | 0.02 | 0.02 | 79 | 1011.5 |
| 20260506173741 | 66 | 47 | 0.9 | 2.6 | 0.00 | 0.02 | 0.02 | 81 | 1011.5 |
| 20260506172741 | 66 | 47 | 0.9 | 2.6 | 0.00 | 0.02 | 0.02 | 81 | 1011.3 |
| 20260506171741 | 66 | 4 | 0.0 | 4.3 | 0.00 | 0.02 | 0.02 | 80 | 1011.3 |
| 20260506170740 | 67 | 62 | 1.7 | 4.3 | 0.00 | 0.02 | 0.02 | 78 | 1011.1 |
| 20260506165742 | 67 | 69 | 2.6 | 4.3 | 0.00 | 0.02 | 0.02 | 78 | 1011.2 |
| 20260506164743 | 67 | 86 | 0.0 | 2.6 | 0.00 | 0.02 | 0.02 | 78 | 1011.2 |
| 20260506163739 | 68 | 86 | 0.0 | 2.6 | 0.00 | 0.02 | 0.02 | 78 | 1011.3 |
| 20260506162738 | 68 | 86 | 1.7 | 2.6 | 0.00 | 0.02 | 0.02 | 76 | 1011.2 |
| 20260506161739 | 68 | 86 | 1.7 | 3.5 | 0.00 | 0.02 | 0.02 | 75 | 1011.2 |
| 20260506160738 | 69 | 93 | 1.7 | 3.5 | 0.00 | 0.02 | 0.02 | 71 | 1011.3 |
| 20260506155742 | 69 | 131 | 0.0 | 1.7 | 0.00 | 0.02 | 0.02 | 66 | 1011.2 |
| 20260506154739 | 70 | 155 | 0.9 | 2.6 | 0.00 | 0.02 | 0.02 | 61 | 1011.1 |
| 20260506153735 | 70 | 235 | 0.9 | 2.6 | 0.00 | 0.02 | 0.02 | 58 | 1011.1 |
| 20260506152739 | 70 | 251 | 1.7 | 8.7 | 0.00 | 0.02 | 0.02 | 57 | 1011.0 |
| 20260506152255 | 71 | 182 | 1.7 | 4.3 | 0.00 | 0.02 | 0.02 | 56 | 1010.9 |
| 20260506151901 | 71 | 269 | 1.7 | 6.1 | 0.00 | 0.02 | 0.02 | 56 | 1010.8 |
| 20260506145734 | 72 | 310 | 1.7 | 5.2 | 0.00 | 0.02 | 0.02 | 55 | 1010.8 |
| 20260506144736 | 72 | 168 | 1.7 | 6.1 | 0.00 | 0.02 | 0.02 | 55 | 1010.7 |
| 20260506143734 | 72 | 196 | 2.6 | 8.7 | 0.00 | 0.02 | 0.02 | 54 | 1010.6 |
| 20260506142735 | 73 | 243 | 2.6 | 7.8 | 0.00 | 0.02 | 0.02 | 56 | 1010.6 |
| 20260506142358 | 72 | 210 | 2.6 | 5.2 | 0.00 | 0.02 | 0.02 | 55 | 1010.5 |
| 20260506141220 | 73 | 262 | 1.7 | 4.3 | 0.00 | 0.02 | 0.02 | 55 | 1010.7 |
| 20260506140857 | 73 | 0 | 1.7 | 5.2 | 0.00 | 0.02 | 0.02 | 54 | 1010.7 |
| 20260506134741 | 74 | 357 | 2.6 | 6.1 | 0.00 | 0.02 | 0.02 | 52 | 1010.9 |
| 20260506133735 | 76 | 175 | 1.7 | 4.3 | 0.00 | 0.02 | 0.02 | 50 | 1011.0 |
| 20260506132734 | 77 | 343 | 0.9 | 6.1 | 0.00 | 0.02 | 0.02 | 48 | 1011.0 |
| 20260506131736 | 77 | 250 | 2.6 | 11.3 | 0.00 | 0.02 | 0.02 | 49 | 1011.1 |
| 20260506130735 | 78 | 243 | 2.6 | 7.8 | 0.00 | 0.02 | 0.02 | 50 | 1011.0 |
| 20260506130244 | 76 | 165 | 2.6 | 6.1 | 0.00 | 0.02 | 0.02 | 52 | 1011.3 |
| 20260506125844 | 77 | 220 | 3.5 | 10.4 | 0.00 | 0.02 | 0.02 | 51 | 1011.3 |
| 20260506123735 | 76 | 165 | 1.7 | 4.3 | 0.00 | 0.02 | 0.02 | 53 | 1011.3 |
| 20260506122733 | 76 | 279 | 0.9 | 5.2 | 0.00 | 0.02 | 0.02 | 52 | 1011.4 |
| 20260506121731 | 76 | 234 | 2.6 | 6.1 | 0.00 | 0.02 | 0.02 | 55 | 1011.3 |
| 20260506120732 | 75 | 221 | 0.9 | 11.3 | 0.00 | 0.02 | 0.02 | 55 | 1011.3 |
| 20260506115732 | 74 | 288 | 2.6 | 6.1 | 0.00 | 0.02 | 0.02 | 56 | 1011.2 |
| 20260506114733 | 74 | 200 | 1.7 | 4.3 | 0.00 | 0.02 | 0.02 | 60 | 1011.3 |
| 20260506113732 | 73 | 188 | 1.7 | 10.4 | 0.00 | 0.02 | 0.02 | 66 | 1011.3 |
| 20260506112733 | 71 | 100 | 3.5 | 8.7 | 0.00 | 0.02 | 0.02 | 71 | 1011.4 |
| 20260506111730 | 70 | 103 | 2.6 | 8.7 | 0.00 | 0.02 | 0.02 | 72 | 1011.7 |
| 20260506110733 | 69 | 162 | 1.7 | 7.8 | 0.00 | 0.02 | 0.02 | 73 | 1011.5 |
| 20260506105729 | 69 | 78 | 3.5 | 7.8 | 0.00 | 0.02 | 0.02 | 71 | 1011.7 |
| 20260506105423 | 68 | 97 | 1.7 | 9.6 | 0.00 | 0.02 | 0.02 | 75 | 1011.9 |
| 20260506103731 | 68 | 82 | 2.6 | 6.1 | 0.00 | 0.02 | 0.02 | 73 | 1012.0 |
| 20260506102731 | 70 | 71 | 2.6 | 6.1 | 0.00 | 0.02 | 0.02 | 70 | 1012.0 |
| 20260506101729 | 71 | 90 | 2.6 | 5.2 | 0.00 | 0.02 | 0.02 | 64 | 1012.1 |
| 20260506100727 | 71 | 58 | 5.2 | 7.8 | 0.00 | 0.02 | 0.02 | 63 | 1012.0 |
| 20260506095731 | 71 | 159 | 2.6 | 6.1 | 0.00 | 0.02 | 0.02 | 65 | 1012.1 |
| 20260506094731 | 69 | 121 | 1.7 | 7.8 | 0.00 | 0.02 | 0.02 | 70 | 1012.2 |
| 20260506093728 | 70 | 93 | 6.1 | 9.6 | 0.00 | 0.02 | 0.02 | 68 | 1012.0 |
| 20260506093621 | 71 | 110 | 5.2 | 11.3 | 0.00 | 0.02 | 0.02 | 62 | 1012.1 |
| 20260506091729 | 71 | 164 | 5.2 | 9.6 | 0.00 | 0.02 | 0.02 | 66 | 1012.1 |
| 20260506090733 | 69 | 118 | 2.6 | 6.1 | 0.00 | 0.02 | 0.02 | 70 | 1012.1 |
| 20260506085728 | 68 | 68 | 3.5 | 8.7 | 0.00 | 0.02 | 0.02 | 68 | 1012.2 |
| 20260506084729 | 68 | 82 | 4.3 | 7.8 | 0.00 | 0.02 | 0.02 | 67 | 1012.1 |
| 20260506083730 | 68 | 97 | 2.6 | 6.1 | 0.00 | 0.02 | 0.02 | 67 | 1012.1 |
| 20260506082730 | 67 | 158 | 1.7 | 5.2 | 0.00 | 0.02 | 0.02 | 70 | 1012.1 |
| 20260506081727 | 65 | 120 | 1.7 | 4.3 | 0.00 | 0.02 | 0.02 | 70 | 1012.1 |
| 20260506080726 | 63 | 116 | 0.9 | 5.2 | 0.00 | 0.02 | 0.02 | 75 | 1012.0 |
| 20260506072727 | 60 | 159 | 0.9 | 1.7 | 0.00 | 0.04 | 0.02 | 83 | 1012.1 |
| 20260506071724 | 59 | 13 | 0.0 | 2.6 | 0.01 | 0.05 | 0.02 | 84 | 1012.1 |
| 20260506071447 | 59 | 0 | 1.7 | 4.3 | 0.02 | 0.06 | 0.02 | 85 | 1012.2 |
| 20260506060726 | 59 | 165 | 0.9 | 4.3 | 0.00 | 0.05 | 0.00 | 87 | 1012.3 |
| 20260506060314 | 59 | 83 | 3.5 | 4.3 | 0.00 | 0.05 | 0.00 | 88 | 1012.1 |
| 20260506050723 | 59 | 103 | 4.3 | 6.1 | 0.00 | 0.06 | 0.00 | 87 | 1012.2 |
| 20260506044719 | 58 | 245 | 0.0 | 0.9 | 0.00 | 0.06 | 0.00 | 88 | 1012.1 |
| 20260506043721 | 58 | 245 | 0.9 | 1.7 | 0.00 | 0.06 | 0.00 | 89 | 1012.1 |
| 20260506042719 | 58 | 221 | 0.0 | 3.5 | 0.00 | 0.06 | 0.00 | 90 | 1012.1 |
| 20260506041726 | 58 | 231 | 0.0 | 1.7 | 0.00 | 0.06 | 0.00 | 90 | 1012.1 |
| 20260506040721 | 58 | 223 | 0.0 | 0.9 | 0.00 | 0.06 | 0.00 | 90 | 1012.3 |
| 20260506040346 | 57 | 223 | 0.0 | 0.9 | 0.00 | 0.06 | 0.00 | 90 | 1012.2 |
| 20260506034721 | 57 | 223 | 0.0 | 2.6 | 0.00 | 0.06 | 0.00 | 90 | 1012.2 |
| 20260506033719 | 57 | 223 | 0.9 | 2.6 | 0.00 | 0.06 | 0.00 | 90 | 1012.2 |
| 20260506032720 | 57 | 223 | 0.9 | 2.6 | 0.00 | 0.06 | 0.00 | 90 | 1012.0 |
| 20260506032346 | 57 | 223 | 0.9 | 2.6 | 0.00 | 0.06 | 0.00 | 90 | 1012.0 |
| 20260506030722 | 57 | 223 | 0.9 | 2.6 | 0.00 | 0.06 | 0.00 | 90 | 1012.1 |
| 20260506025722 | 57 | 247 | 0.0 | 0.9 | 0.00 | 0.06 | 0.00 | 89 | 1012.0 |
| 20260506024721 | 57 | 247 | 0.0 | 1.7 | 0.00 | 0.06 | 0.00 | 89 | 1012.1 |
| 20260506023722 | 57 | 247 | 0.9 | 3.5 | 0.00 | 0.06 | 0.00 | 89 | 1012.3 |
| 20260506022719 | 57 | 148 | 0.9 | 1.7 | 0.00 | 0.06 | 0.00 | 89 | 1012.3 |
| 20260506021718 | 58 | 235 | 1.7 | 2.6 | 0.00 | 0.06 | 0.00 | 88 | 1012.5 |
| 20260506020720 | 58 | 159 | 0.0 | 1.7 | 0.00 | 0.06 | 0.00 | 88 | 1012.5 |
| 20260506020357 | 58 | 159 | 0.9 | 2.6 | 0.00 | 0.06 | 0.00 | 88 | 1012.7 |
| 20260506014716 | 58 | 159 | 1.7 | 2.6 | 0.00 | 0.06 | 0.00 | 88 | 1012.8 |
| 20260506013718 | 58 | 168 | 0.9 | 1.7 | 0.00 | 0.06 | 0.00 | 87 | 1012.7 |
| 20260506012716 | 58 | 99 | 1.7 | 3.5 | 0.00 | 0.06 | 0.00 | 87 | 1012.8 |
| 20260506011718 | 58 | 152 | 0.0 | 0.0 | 0.00 | 0.06 | 0.00 | 87 | 1012.8 |
| 20260506010714 | 58 | 152 | 0.0 | 2.6 | 0.00 | 0.06 | 0.00 | 88 | 1012.9 |
| 20260506005719 | 58 | 142 | 1.7 | 2.6 | 0.00 | 0.06 | 0.00 | 87 | 1012.9 |
| 20260506004716 | 58 | 248 | 0.0 | 2.6 | 0.00 | 0.06 | 0.00 | 87 | 1013.0 |
| 20260506003720 | 58 | 281 | 0.0 | 1.7 | 0.00 | 0.06 | 0.00 | 87 | 1013.2 |
| 20260506002718 | 58 | 204 | 0.0 | 2.6 | 0.00 | 0.06 | 0.00 | 87 | 1013.1 |
| 20260506001717 | 58 | 152 | 1.7 | 2.6 | 0.00 | 0.06 | 0.00 | 87 | 1013.0 |
| 20260506000714 | 59 | 141 | 1.7 | 2.6 | 0.00 | 0.06 | 0.00 | 86 | 1013.1 |
| 20260506000340 | 59 | 179 | 1.7 | 2.6 | 0.00 | 0.06 | 0.00 | 86 | 1013.5 |
| 20260505235359 | 59 | 165 | 0.9 | 2.6 | 0.00 | 0.06 | 0.00 | 86 | 1013.5 |
| 20260505234200 | 59 | 223 | 0.0 | 1.7 | 0.00 | 0.06 | 0.00 | 86 | 1013.8 |
| 20260505233828 | 59 | 130 | 0.9 | 2.6 | 0.00 | 0.06 | 0.00 | 86 | 1013.8 |
| 20260505231713 | 59 | 155 | 0.0 | 0.9 | 0.00 | 0.06 | 0.00 | 86 | 1014.1 |
| 20260505230717 | 59 | 155 | 0.0 | 1.7 | 0.00 | 0.06 | 0.00 | 86 | 1014.1 |